Dewpoint
66 67 67 67 66 67 67 66 66 66 67 67 66 66 66 67 67 67 67 66 67 68 67 67 66 67 67 67 67 67 67 67 67 67 67 67 66 66 66 66 67 67
65 66 67 67 67 67 68 69 68 67 67 67 67 67 66 66 67 67 66 66 66 68 67 67 67 67 67 68 67 67 67 67 67 67 67 67 66 66 66 66 66 67
65 65 65 67 67 67 67 67 68 68 68 68 67 67 67 67 66 66 66 66 66 67 66 66 67 67 67 67 67 67 67 67 67 67 67 66 67 66 66 66 66 67
65 65 64 65 67 66 67 67 67 68 68 68 67 67 67 67 67 66 66 67 66 66 66 66 66 66 66 66 67 67 66 67 67 67 67 66 67 67 66 66 66 66
65 65 64 64 66 66 67 66 66 67 67 67 68 67 67 67 66 66 66 66 66 65 66 66 66 66 66 66 66 66 66 67 67 67 66 66 66 66 65 64 65 65
65 65 64 64 64 64 65 65 65 66 66 67 67 67 67 67 66 66 65 66 65 65 67 66 65 66 65 65 65 65 65 66 67 66 65 65 65 66 65 65 65 65
64 64 65 64 65 65 65 65 66 65 65 67 67 67 66 66 66 65 65 65 65 65 65 65 65 66 65 64 64 65 66 66 66 65 64 64 65 64 64 64 65 65
63 64 63 64 64 65 63 63 64 65 65 66 67 66 66 65 65 66 65 65 65 64 64 64 65 65 65 65 65 65 65 66 65 65 64 64 65 64 64 64 65 65
63 62 63 63 64 64 64 64 64 65 65 66 66 66 65 65 65 66 65 64 64 64 64 64 64 64 65 65 64 64 64 65 65 65 65 64 65 64 64 64 65 64
62 62 63 64 64 64 64 64 65 64 65 65 65 65 66 65 66 66 65 64 64 63 63 64 64 64 65 65 64 64 64 64 65 65 65 65 64 63 64 65 64 63
62 62 62 63 63 64 64 65 65 65 65 65 66 65 64 65 65 65 66 65 65 64 63 63 63 64 64 64 64 64 64 64 64 64 64 64 63 63 64 64 64 64
63 63 64 63 64 64 65 65 65 65 64 64 65 65 64 66 65 65 66 64 64 62 63 63 63 64 64 64 64 64 64 64 65 64 64 63 63 63 63 64 64 64
62 62 63 64 65 65 65 66 65 65 65 64 66 66 65 65 65 65 66 65 64 63 63 63 63 65 64 64 64 64 64 64 65 64 64 64 64 64 65 65 64 65
62 63 64 64 63 64 65 65 65 65 64 64 65 64 65 64 64 64 65 65 64 64 64 64 63 63 63 64 64 64 64 65 64 63 63 64 65 64 65 65 64 64
61 62 62 64 63 63 64 64 64 63 64 64 64 64 64 64 65 64 64 65 64 66 64 62 62 63 63 63 64 64 65 65 63 63 63 64 64 64 65 64 64 64
59 60 62 63 62 62 62 63 63 63 64 63 64 64 64 65 64 65 64 64 65 64 65 65 65 65 64 61 61 64 64 64 64 64 64 64 64 65 65 64 64 65
58 56 57 60 61 63 62 62 63 63 63 64 64 63 64 64 65 64 63 64 64 63 64 64 65 64 54 53 54 57 64 64 63 63 64 64 65 64 64 64 64 65
59 56 58 61 62 61 61 62 63 62 62 62 62 62 64 64 64 62 63 64 64 63 64 64 63 57 50 49 48 50 59 65 64 65 65 66 65 65 63 63 64 65
54 56 58 58 58 57 62 62 62 62 61 61 62 63 63 63 63 63 63 64 63 63 64 64 63 54 50 52 53 49 48 63 66 65 66 65 64 65 64 64 64 65
53 53 56 57 59 58 59 61 61 60 62 62 62 63 62 62 63 63 63 63 63 63 64 63 62 54 47 48 50 51 47 56 63 64 64 64 63 64 64 64 65 64
51 50 50 52 56 58 58 59 61 61 61 62 62 63 63 62 63 62 63 63 62 63 63 63 62 50 47 47 46 47 46 57 63 64 64 65 64 64 63 62 64 64
50 46 50 49 52 56 56 56 56 57 61 62 63 63 63 62 62 63 62 62 62 63 63 63 60 43 46 46 46 47 46 62 63 64 63 63 64 64 64 63 63 63
46 46 50 50 50 52 52 54 56 57 57 57 62 62 62 62 61 61 62 63 62 63 63 63 62 48 44 44 45 45 54 64 64 63 63 65 64 63 63 62 63 63
48 45 47 48 51 50 50 52 53 54 56 56 54 55 60 61 62 62 62 62 62 62 62 62 62 53 43 43 43 43 54 64 65 64 64 64 64 64 64 65 64 65
53 46 47 52 49 51 52 51 52 53 56 57 55 57 54 50 57 60 62 62 62 62 63 62 62 53 43 42 42 44 57 64 65 63 62 62 62 64 64 63 64 65
54 48 52 51 48 51 51 51 52 52 52 52 52 45 48 49 47 53 60 60 62 62 62 63 63 59 49 42 43 45 50 63 64 63 62 62 62 62 63 63 64 64